TimeMDT,TemperatureF,Dew PointF,Humidity,Sea Level PressureIn,VisibilityMPH,Wind Direction,Wind SpeedMPH,Gust SpeedMPH,PrecipitationIn,Events,Conditions,WindDirDegrees,DateUTC
12:15 AM,32.0,28.9,88,30.22,10.0,Calm,Calm,-,N/A,,Clear,0,2013-03-31 06:15:00
12:35 AM,32.0,28.9,88,30.22,10.0,Calm,Calm,-,N/A,,Clear,0,2013-03-31 06:35:00
12:55 AM,30.7,27.9,89,30.22,10.0,Calm,Calm,-,N/A,,Clear,0,2013-03-31 06:55:00
1:15 AM,28.6,26.6,92,30.21,10.0,ENE,3.5,-,N/A,,Clear,70,2013-03-31 07:15:00
1:35 AM,29.8,27.7,92,30.22,10.0,Calm,Calm,-,N/A,,Clear,0,2013-03-31 07:35:00
1:55 AM,28.9,26.8,92,30.22,10.0,Calm,Calm,-,N/A,,Clear,0,2013-03-31 07:55:00
2:15 AM,29.1,26.8,91,30.21,10.0,Calm,Calm,-,N/A,,Clear,0,2013-03-31 08:15:00
2:35 AM,29.1,27.0,92,30.21,10.0,Calm,Calm,-,N/A,,Clear,0,2013-03-31 08:35:00
2:55 AM,27.5,26.1,94,30.20,10.0,Calm,Calm,-,N/A,,Clear,0,2013-03-31 08:55:00
3:15 AM,28.4,26.6,93,30.19,10.0,Calm,Calm,-,N/A,,Clear,0,2013-03-31 09:15:00
3:35 AM,28.2,26.8,94,30.19,10.0,Calm,Calm,-,N/A,,Clear,0,2013-03-31 09:35:00
3:55 AM,27.3,25.2,92,30.19,10.0,Calm,Calm,-,N/A,,Clear,0,2013-03-31 09:55:00
4:15 AM,27.5,25.7,93,30.19,10.0,Calm,Calm,-,N/A,,Clear,0,2013-03-31 10:15:00
4:35 AM,27.0,24.8,92,30.18,10.0,Calm,Calm,-,N/A,,Clear,0,2013-03-31 10:35:00
4:55 AM,27.3,23.4,85,30.19,10.0,Calm,Calm,-,N/A,,Clear,0,2013-03-31 10:55:00
5:15 AM,25.3,23.5,93,30.19,10.0,Calm,Calm,-,N/A,,Clear,0,2013-03-31 11:15:00
5:35 AM,25.3,23.0,91,30.19,10.0,Calm,Calm,-,N/A,,Clear,0,2013-03-31 11:35:00
5:55 AM,24.8,23.4,94,30.19,10.0,Calm,Calm,-,N/A,,Clear,0,2013-03-31 11:55:00
6:15 AM,24.4,22.8,94,30.19,10.0,Calm,Calm,-,N/A,,Clear,0,2013-03-31 12:15:00
6:35 AM,24.8,23.0,93,30.19,10.0,Calm,Calm,-,N/A,,Clear,0,2013-03-31 12:35:00
6:55 AM,25.0,22.6,91,30.20,10.0,Calm,Calm,-,N/A,,Clear,0,2013-03-31 12:55:00
7:15 AM,24.6,22.3,91,30.20,10.0,Calm,Calm,-,N/A,,Clear,0,2013-03-31 13:15:00
7:35 AM,25.7,22.3,87,30.20,10.0,Calm,Calm,-,N/A,,Clear,0,2013-03-31 13:35:00
7:55 AM,25.3,19.9,80,30.21,10.0,Calm,Calm,-,N/A,,Clear,0,2013-03-31 13:55:00
8:15 AM,27.5,20.3,74,30.20,10.0,Calm,Calm,-,N/A,,Clear,0,2013-03-31 14:15:00
8:35 AM,27.3,21.4,78,30.20,10.0,Calm,Calm,-,N/A,,Clear,0,2013-03-31 14:35:00
8:55 AM,28.9,20.8,72,30.20,10.0,Calm,Calm,-,N/A,,Clear,0,2013-03-31 14:55:00
9:15 AM,31.6,21.9,67,30.19,10.0,Calm,Calm,-,N/A,,Clear,0,2013-03-31 15:15:00
9:35 AM,32.0,21.6,65,30.19,10.0,Calm,Calm,-,N/A,,Clear,0,2013-03-31 15:35:00
9:55 AM,34.2,22.6,63,30.18,10.0,Calm,Calm,-,N/A,,Clear,0,2013-03-31 15:55:00
10:15 AM,33.8,23.0,65,30.18,10.0,Calm,Calm,-,N/A,,Clear,0,2013-03-31 16:15:00
10:35 AM,36.7,23.7,59,30.18,10.0,Calm,Calm,-,N/A,,Clear,0,2013-03-31 16:35:00
10:55 AM,38.1,24.1,57,30.18,10.0,Calm,Calm,-,N/A,,Clear,0,2013-03-31 16:55:00
11:15 AM,39.0,23.9,55,30.18,10.0,Calm,Calm,-,N/A,,Clear,0,2013-03-31 17:15:00
11:35 AM,39.7,23.5,52,30.18,10.0,Calm,Calm,-,N/A,,Clear,0,2013-03-31 17:35:00
11:55 AM,42.3,23.0,47,30.18,10.0,Calm,Calm,-,N/A,,Clear,0,2013-03-31 17:55:00
12:15 PM,44.4,22.3,42,30.18,10.0,Calm,Calm,-,N/A,,Clear,0,2013-03-31 18:15:00
12:35 PM,46.2,22.3,39,30.17,10.0,Calm,Calm,-,N/A,,Clear,0,2013-03-31 18:35:00
12:55 PM,49.5,21.7,34,30.16,10.0,Calm,Calm,-,N/A,,Clear,0,2013-03-31 18:55:00
1:15 PM,52.9,14.9,22,30.16,10.0,Calm,Calm,-,N/A,,Clear,0,2013-03-31 19:15:00
1:35 PM,53.8,14.4,21,30.15,10.0,Calm,Calm,-,N/A,,Clear,0,2013-03-31 19:35:00
1:55 PM,53.1,16.9,24,30.15,10.0,Calm,Calm,-,N/A,,Clear,0,2013-03-31 19:55:00
2:15 PM,54.1,15.8,22,30.14,10.0,Calm,Calm,-,N/A,,Clear,0,2013-03-31 20:15:00
2:35 PM,54.9,13.5,19,30.13,10.0,Calm,Calm,-,N/A,,Clear,0,2013-03-31 20:35:00
2:55 PM,54.9,13.6,20,30.12,10.0,Calm,Calm,-,N/A,,Clear,0,2013-03-31 20:55:00
3:15 PM,55.0,12.6,19,30.11,10.0,Calm,Calm,-,N/A,,Clear,0,2013-03-31 21:15:00
3:35 PM,55.6,12.4,18,30.10,10.0,Calm,Calm,-,N/A,,Clear,0,2013-03-31 21:35:00
3:55 PM,57.0,10.8,16,30.10,10.0,Calm,Calm,-,N/A,,Clear,0,2013-03-31 21:55:00
4:15 PM,56.5,13.5,18,30.09,10.0,Calm,Calm,-,N/A,,Clear,0,2013-03-31 22:15:00
4:35 PM,57.4,12.7,17,30.09,10.0,Calm,Calm,-,N/A,,Clear,0,2013-03-31 22:35:00
4:55 PM,56.8,13.5,18,30.08,10.0,Calm,Calm,-,N/A,,Clear,0,2013-03-31 22:55:00
5:15 PM,56.7,12.7,18,30.08,10.0,Calm,Calm,-,N/A,,Clear,0,2013-03-31 23:15:00
5:35 PM,56.7,12.0,17,30.07,10.0,Calm,Calm,-,N/A,,Clear,0,2013-03-31 23:35:00
5:55 PM,57.0,12.0,17,30.07,10.0,Calm,Calm,-,N/A,,Clear,0,2013-03-31 23:55:00
6:15 PM,55.2,11.7,18,30.06,10.0,Calm,Calm,-,N/A,,Clear,0,2013-04-01 00:15:00
6:35 PM,55.0,10.9,17,30.06,10.0,Calm,Calm,-,N/A,,Clear,0,2013-04-01 00:35:00
7:15 PM,51.1,14.7,24,30.05,10.0,Calm,Calm,-,N/A,,Clear,0,2013-04-01 01:15:00
7:35 PM,48.2,18.1,30,30.05,10.0,SE,3.5,-,N/A,,Clear,130,2013-04-01 01:35:00
7:55 PM,45.3,19.4,36,30.05,10.0,Calm,Calm,-,N/A,,Clear,0,2013-04-01 01:55:00
8:15 PM,45.1,18.7,35,30.06,10.0,Calm,Calm,-,N/A,,Clear,0,2013-04-01 02:15:00
8:35 PM,40.1,22.6,50,30.06,10.0,Calm,Calm,-,N/A,,Clear,0,2013-04-01 02:35:00
8:55 PM,40.6,22.1,48,30.07,10.0,Calm,Calm,-,N/A,,Clear,0,2013-04-01 02:55:00
9:15 PM,41.9,20.1,42,30.07,10.0,ESE,3.5,-,N/A,,Clear,110,2013-04-01 03:15:00
9:35 PM,41.9,16.9,36,30.07,10.0,East,3.5,-,N/A,,Clear,100,2013-04-01 03:35:00
9:55 PM,36.9,21.0,53,30.07,10.0,ESE,3.5,-,N/A,,Clear,120,2013-04-01 03:55:00
10:15 PM,37.9,19.9,48,30.08,10.0,East,3.5,-,N/A,,Clear,80,2013-04-01 04:15:00
10:35 PM,37.4,19.4,48,30.08,10.0,Calm,Calm,-,N/A,,Clear,0,2013-04-01 04:35:00
10:55 PM,37.4,19.8,49,30.08,10.0,Calm,Calm,-,N/A,,Clear,0,2013-04-01 04:55:00
11:15 PM,36.5,20.8,53,30.08,10.0,Calm,Calm,-,N/A,,Clear,0,2013-04-01 05:15:00
11:35 PM,36.7,18.3,47,30.07,10.0,Calm,Calm,-,N/A,,Clear,0,2013-04-01 05:35:00
11:55 PM,35.8,18.3,49,30.07,10.0,Calm,Calm,-,N/A,,Clear,0,2013-04-01 05:55:00